�������l�o���
Date,Time,MP-1(��Sv/h),MP-2(��Sv/h),MP-3(��Sv/h),MP-4(��Sv/h),MP-5(��Sv/h),MP-6(��Sv/h),MP-7(��Sv/h),MP-8(��Sv/h),����,����(m/s),���J
2023/08/10,00:00,0.537,0.807,0.496,0.989,0.717,0.319,0.574,0.531,��,8.2,��
2023/08/10,00:10,0.536,0.806,0.495,0.992,0.720,0.319,0.573,0.531,��,8.6,��
2023/08/10,00:20,0.537,0.808,0.496,0.993,0.719,0.320,0.574,0.533,��,8.5,��
2023/08/10,00:30,0.535,0.808,0.495,0.991,0.719,0.319,0.574,0.534,��,8.2,��
2023/08/10,00:40,0.536,0.806,0.495,0.991,0.720,0.320,0.575,0.532,��,9.0,�L
2023/08/10,00:50,0.535,0.808,0.494,0.990,0.720,0.320,0.573,0.532,��,8.7,��
2023/08/10,01:00,0.537,0.808,0.495,0.990,0.719,0.321,0.574,0.534,��,7.8,��
2023/08/10,01:10,0.536,0.808,0.493,0.989,0.719,0.321,0.574,0.532,��,8.0,��
2023/08/10,01:20,0.537,0.808,0.496,0.992,0.719,0.321,0.573,0.533,��,8.6,��
2023/08/10,01:30,0.537,0.807,0.495,0.991,0.718,0.321,0.575,0.534,��,8.0,��
2023/08/10,01:40,0.537,0.808,0.496,0.992,0.720,0.321,0.574,0.535,��,8.2,��
2023/08/10,01:50,0.536,0.809,0.498,0.990,0.718,0.322,0.574,0.532,��,7.4,��
2023/08/10,02:00,0.535,0.807,0.495,0.995,0.717,0.321,0.573,0.531,��,6.8,��
2023/08/10,02:10,0.536,0.809,0.495,0.992,0.721,0.321,0.574,0.532,��,7.3,��
2023/08/10,02:20,0.537,0.808,0.496,0.991,0.719,0.320,0.574,0.532,��,8.4,��
2023/08/10,02:30,0.538,0.809,0.495,0.993,0.721,0.322,0.574,0.534,��,6.4,��
2023/08/10,02:40,0.536,0.807,0.496,0.992,0.722,0.320,0.574,0.533,��,7.8,��
2023/08/10,02:50,0.536,0.808,0.494,0.992,0.720,0.320,0.573,0.531,��,7.8,��
2023/08/10,03:00,0.538,0.807,0.494,0.993,0.720,0.321,0.573,0.531,��,5.9,�L
2023/08/10,03:10,0.537,0.809,0.496,0.991,0.719,0.321,0.575,0.533,��,7.0,��
2023/08/10,03:20,0.538,0.810,0.496,0.993,0.719,0.320,0.573,0.532,��,6.9,�L
2023/08/10,03:30,0.537,0.810,0.495,0.990,0.721,0.320,0.573,0.533,��,7.3,�L
2023/08/10,03:40,0.537,0.806,0.496,0.991,0.717,0.321,0.573,0.532,��,6.8,�L
2023/08/10,03:50,0.535,0.794,0.491,0.986,0.716,0.319,0.569,0.531,��,8.3,�L
2023/08/10,04:00,0.534,0.791,0.487,0.983,0.716,0.318,0.569,0.530,��,7.4,�L
2023/08/10,04:10,0.532,0.792,0.487,0.984,0.717,0.319,0.568,0.531,��,8.8,��
2023/08/10,04:20,0.531,0.789,0.487,0.983,0.715,0.319,0.568,0.529,��쓌,8.9,��
2023/08/10,04:30,0.531,0.790,0.488,0.983,0.717,0.319,0.568,0.530,��,8.7,��
2023/08/10,04:40,0.533,0.792,0.487,0.985,0.716,0.318,0.569,0.530,��,8.3,��
2023/08/10,04:50,0.531,0.793,0.487,0.985,0.716,0.319,0.570,0.532,��쓌,10.2,��
2023/08/10,05:00,0.532,0.793,0.488,0.984,0.716,0.318,0.569,0.531,��,9.4,��
2023/08/10,05:10,0.532,0.793,0.488,0.984,0.716,0.317,0.569,0.531,��,9.2,��
2023/08/10,05:20,0.533,0.793,0.487,0.985,0.717,0.319,0.569,0.531,��,10.0,��
2023/08/10,05:30,0.533,0.792,0.487,0.986,0.715,0.318,0.568,0.533,��,10.2,��
2023/08/10,05:40,0.534,0.790,0.487,0.983,0.716,0.319,0.570,0.531,��,8.8,��
2023/08/10,05:50,0.532,0.794,0.488,0.984,0.717,0.319,0.569,0.532,��,9.1,��
2023/08/10,06:00,0.532,0.792,0.488,0.985,0.717,0.318,0.570,0.533,��,8.6,��
2023/08/10,06:10,0.535,0.792,0.488,0.985,0.715,0.317,0.572,0.532,��,8.9,��
2023/08/10,06:20,0.533,0.794,0.488,0.984,0.718,0.320,0.570,0.532,��,8.1,��
2023/08/10,06:30,0.533,0.796,0.489,0.986,0.713,0.319,0.570,0.532,��,8.4,��
2023/08/10,06:40,0.533,0.795,0.488,0.986,0.719,0.319,0.571,0.531,��,7.2,��
2023/08/10,06:50,0.533,0.795,0.487,0.985,0.717,0.319,0.571,0.530,��,6.7,��
2023/08/10,07:00,0.532,0.796,0.489,0.984,0.718,0.321,0.571,0.532,��,6.6,��
2023/08/10,07:10,0.534,0.797,0.489,0.985,0.719,0.320,0.571,0.532,��,5.8,��
2023/08/10,07:20,0.533,0.796,0.491,0.986,0.719,0.319,0.572,0.531,��,8.5,��
2023/08/10,07:30,0.532,0.796,0.490,0.986,0.716,0.320,0.572,0.532,��,4.7,��
2023/08/10,07:40,0.534,0.797,0.490,0.984,0.718,0.320,0.571,0.532,��,7.4,��
2023/08/10,07:50,0.537,0.798,0.490,0.987,0.718,0.321,0.571,0.531,��,7.3,��
2023/08/10,08:00,0.535,0.798,0.490,0.988,0.718,0.321,0.571,0.532,��쓌,8.8,��
2023/08/10,08:10,0.536,0.799,0.492,0.986,0.718,0.319,0.572,0.531,��쓌,10.5,��
2023/08/10,08:20,0.537,0.798,0.492,0.985,0.719,0.320,0.571,0.533,��쓌,9.4,��
2023/08/10,08:30,0.535,0.802,0.491,0.985,0.717,0.321,0.572,0.532,��쓌,11.0,��
2023/08/10,08:40,0.536,0.802,0.491,0.985,0.718,0.319,0.573,0.531,��쓌,9.9,��
2023/08/10,08:50,0.537,0.803,0.492,0.987,0.720,0.320,0.573,0.530,��쓌,9.2,��
2023/08/10,09:00,0.535,0.802,0.491,0.986,0.720,0.321,0.574,0.532,��쓌,9.0,��
2023/08/10,09:10,0.535,0.802,0.492,0.986,0.718,0.321,0.573,0.531,��쓌,8.4,��
2023/08/10,09:20,0.537,0.802,0.493,0.986,0.719,0.320,0.573,0.531,��쓌,9.9,��
2023/08/10,09:30,0.536,0.804,0.492,0.987,0.721,0.320,0.575,0.531,��쓌,9.4,��
2023/08/10,09:40,0.538,0.805,0.493,0.989,0.719,0.321,0.573,0.532,��쓌,9.7,��
2023/08/10,09:50,0.537,0.803,0.493,0.987,0.721,0.320,0.572,0.532,��쓌,10.5,��
2023/08/10,10:00,0.537,0.804,0.494,0.989,0.721,0.320,0.572,0.532,��쓌,10.0,��
2023/08/10,10:10,0.538,0.806,0.493,0.988,0.722,0.320,0.571,0.531,��쓌,11.6,��
2023/08/10,10:20,0.537,0.803,0.493,0.988,0.722,0.321,0.572,0.532,��쓌,9.2,��
2023/08/10,10:30,0.538,0.808,0.493,0.990,0.721,0.319,0.572,0.532,��쓌,10.0,��
2023/08/10,10:40,0.539,0.807,0.495,0.990,0.722,0.321,0.572,0.531,��쓌,10.7,��
2023/08/10,10:50,0.539,0.808,0.494,0.988,0.724,0.320,0.572,0.532,��쓌,8.6,��
2023/08/10,11:00,0.540,0.808,0.494,0.988,0.724,0.321,0.573,0.532,��쓌,9.4,��
2023/08/10,11:10,0.538,0.810,0.496,0.992,0.726,0.320,0.574,0.533,��쓌,9.8,��
2023/08/10,11:20,0.539,0.808,0.495,0.992,0.726,0.320,0.573,0.533,��쓌,9.2,��
2023/08/10,11:30,0.541,0.808,0.495,0.988,0.726,0.320,0.574,0.533,��쓌,8.7,��
2023/08/10,11:40,0.540,0.808,0.495,0.988,0.726,0.321,0.573,0.533,��쓌,8.9,��
2023/08/10,11:50,0.540,0.811,0.496,0.988,0.726,0.322,0.574,0.534,��쓌,8.5,��
2023/08/10,12:00,0.539,0.810,0.496,0.988,0.727,0.321,0.573,0.532,��쓌,5.9,��
2023/08/10,12:10,0.540,0.808,0.497,0.989,0.727,0.320,0.573,0.534,��쓌,8.1,��
2023/08/10,12:20,0.541,0.811,0.498,0.990,0.730,0.321,0.573,0.534,��쓌,8.9,��
2023/08/10,12:30,0.539,0.813,0.496,0.987,0.728,0.322,0.573,0.535,��쓌,8.0,��
2023/08/10,12:40,0.540,0.813,0.496,0.992,0.729,0.321,0.574,0.535,��쓌,9.1,��
2023/08/10,12:50,0.540,0.810,0.499,0.989,0.729,0.322,0.573,0.536,��쓌,9.6,��
2023/08/10,13:00,0.543,0.812,0.498,0.991,0.730,0.321,0.575,0.535,��쓌,7.9,��
2023/08/10,13:10,0.539,0.814,0.499,0.990,0.728,0.322,0.574,0.536,��쓌,9.1,��
2023/08/10,13:20,0.540,0.812,0.497,0.992,0.728,0.323,0.575,0.536,��쓌,9.0,��
2023/08/10,13:30,0.542,0.812,0.497,0.994,0.730,0.321,0.575,0.535,��쓌,9.0,��
2023/08/10,13:40,0.541,0.812,0.497,0.993,0.731,0.321,0.576,0.534,��쓌,9.2,��
2023/08/10,13:50,0.541,0.812,0.498,0.993,0.729,0.323,0.575,0.536,��쓌,6.7,��
2023/08/10,14:00,0.542,0.813,0.498,0.993,0.730,0.322,0.578,0.535,��쓌,7.8,��
2023/08/10,14:10,0.541,0.815,0.498,0.994,0.729,0.323,0.576,0.537,��쓌,4.9,��
2023/08/10,14:20,0.541,0.813,0.498,0.994,0.731,0.321,0.577,0.535,��쓌,3.5,��
2023/08/10,14:30,0.543,0.815,0.498,0.993,0.730,0.323,0.575,0.536,��쓌,8.2,��
2023/08/10,14:40,0.541,0.816,0.497,0.992,0.731,0.323,0.576,0.535,��쓌,10.2,��
2023/08/10,14:50,0.543,0.815,0.498,0.996,0.732,0.323,0.576,0.535,��쓌,7.1,��
2023/08/10,15:00,0.542,0.815,0.499,0.995,0.732,0.323,0.577,0.534,��쓌,5.2,��
2023/08/10,15:10,0.542,0.815,0.501,0.992,0.731,0.323,0.577,0.532,��쓌,6.0,��
2023/08/10,15:20,0.543,0.815,0.498,0.994,0.730,0.322,0.575,0.534,��쓌,4.3,��
2023/08/10,15:30,0.541,0.816,0.499,0.994,0.731,0.322,0.575,0.534,��쓌,6.2,��
2023/08/10,15:40,0.542,0.814,0.497,0.995,0.733,0.321,0.576,0.533,��,5.4,��
2023/08/10,15:50,0.542,0.816,0.498,0.996,0.731,0.323,0.576,0.534,��쓌,7.6,��
2023/08/10,16:00,0.542,0.814,0.498,0.996,0.732,0.323,0.577,0.534,��쓌,7.5,��
2023/08/10,16:10,0.542,0.817,0.499,0.997,0.732,0.322,0.575,0.533,��쓌,7.8,��
2023/08/10,16:20,0.543,0.816,0.499,0.996,0.733,0.323,0.575,0.533,��쓌,9.6,��
2023/08/10,16:30,0.542,0.815,0.499,0.996,0.732,0.323,0.574,0.534,��쓌,8.3,��
2023/08/10,16:40,0.542,0.815,0.498,0.996,0.732,0.323,0.574,0.533,��쓌,7.9,��
2023/08/10,16:50,0.542,0.816,0.498,0.998,0.731,0.321,0.575,0.535,��쓌,8.8,��
2023/08/10,17:00,0.542,0.815,0.500,0.999,0.732,0.323,0.575,0.534,��쓌,7.0,��
2023/08/10,17:10,0.542,0.815,0.498,0.999,0.731,0.322,0.575,0.533,��쓌,7.8,��
2023/08/10,17:20,0.543,0.814,0.500,0.999,0.733,0.324,0.575,0.537,��쓌,7.6,��
2023/08/10,17:30,0.543,0.813,0.499,0.996,0.732,0.322,0.575,0.533,��쓌,8.1,��
2023/08/10,17:40,0.542,0.816,0.499,0.998,0.732,0.323,0.573,0.532,��쓌,7.6,��
2023/08/10,17:50,0.542,0.815,0.498,0.996,0.732,0.323,0.574,0.533,��쓌,8.9,��
2023/08/10,18:00,0.544,0.816,0.498,0.997,0.731,0.322,0.574,0.534,��쓌,7.9,��
2023/08/10,18:10,0.543,0.816,0.498,0.997,0.732,0.322,0.574,0.534,��쓌,8.9,��
2023/08/10,18:20,0.542,0.813,0.498,0.996,0.732,0.322,0.574,0.534,��쓌,8.3,��
2023/08/10,18:30,0.541,0.815,0.497,0.998,0.734,0.322,0.573,0.534,�쓌,9.6,��
2023/08/10,18:40,0.543,0.815,0.498,0.994,0.732,0.323,0.576,0.533,��쓌,8.9,��
2023/08/10,18:50,0.543,0.814,0.498,0.995,0.733,0.322,0.574,0.535,��쓌,8.1,��
2023/08/10,19:00,0.543,0.815,0.498,0.998,0.734,0.323,0.574,0.534,��쓌,8.8,��
2023/08/10,19:10,0.542,0.814,0.500,0.996,0.734,0.322,0.573,0.533,��쓌,7.4,��
2023/08/10,19:20,0.541,0.815,0.497,0.998,0.735,0.323,0.573,0.534,��쓌,7.1,��
2023/08/10,19:30,0.541,0.815,0.498,0.997,0.733,0.323,0.574,0.534,��쓌,7.6,��
2023/08/10,19:40,0.543,0.818,0.500,0.997,0.735,0.323,0.573,0.533,��쓌,6.9,��
2023/08/10,19:50,0.541,0.817,0.500,0.998,0.733,0.325,0.573,0.533,��쓌,7.3,��
2023/08/10,20:00,0.543,0.817,0.499,0.999,0.732,0.324,0.574,0.533,��쓌,7.2,��
2023/08/10,20:10,0.541,0.819,0.499,1.001,0.734,0.323,0.575,0.534,��쓌,6.9,��
2023/08/10,20:20,0.541,0.817,0.498,0.998,0.734,0.322,0.575,0.534,��쓌,8.0,�L
2023/08/10,20:30,0.542,0.816,0.501,0.998,0.734,0.323,0.574,0.533,��쓌,7.9,�L
2023/08/10,20:40,0.542,0.816,0.499,0.998,0.733,0.322,0.575,0.535,��쓌,7.6,��
2023/08/10,20:50,0.543,0.818,0.499,0.997,0.731,0.324,0.575,0.535,��쓌,6.6,��
2023/08/10,21:00,0.542,0.817,0.500,0.999,0.734,0.323,0.575,0.535,��,5.1,��
2023/08/10,21:10,0.543,0.816,0.500,0.999,0.735,0.324,0.575,0.534,��쓌,4.0,��
2023/08/10,21:20,0.545,0.817,0.500,0.998,0.734,0.323,0.575,0.534,��,4.0,��
2023/08/10,21:30,0.544,0.817,0.500,0.997,0.733,0.323,0.575,0.535,��,4.0,�L
2023/08/10,21:40,0.540,0.815,0.500,0.997,0.734,0.324,0.574,0.535,��쓌,4.8,��
2023/08/10,21:50,0.542,0.814,0.500,0.999,0.736,0.323,0.575,0.535,��쓌,5.2,��
2023/08/10,22:00,0.540,0.815,0.500,1.000,0.735,0.323,0.576,0.534,��쓌,5.8,�L
2023/08/10,22:10,0.544,0.815,0.499,0.998,0.735,0.323,0.575,0.533,��쓌,5.7,��
2023/08/10,22:20,0.543,0.816,0.499,1.001,0.735,0.324,0.576,0.535,��쓌,5.9,��
2023/08/10,22:30,0.542,0.815,0.498,0.998,0.735,0.323,0.576,0.535,��쓌,7.3,��
2023/08/10,22:40,0.541,0.814,0.501,0.999,0.735,0.323,0.575,0.535,��쓌,8.0,��
2023/08/10,22:50,0.541,0.815,0.500,0.997,0.735,0.324,0.576,0.535,��쓌,9.4,��
2023/08/10,23:00,0.541,0.818,0.500,0.999,0.735,0.326,0.575,0.537,��쓌,8.5,��
2023/08/10,23:10,0.541,0.816,0.501,0.998,0.733,0.323,0.574,0.536,��쓌,9.2,��
2023/08/10,23:20,0.541,0.816,0.500,0.999,0.734,0.323,0.575,0.534,��쓌,8.9,��
2023/08/10,23:30,0.542,0.814,0.501,0.998,0.733,0.323,0.574,0.535,��쓌,8.4,��
2023/08/10,23:40,0.539,0.814,0.501,0.999,0.734,0.323,0.577,0.536,��쓌,7.8,��
2023/08/10,23:50,0.541,0.815,0.499,1.000,0.735,0.324,0.575,0.536,��쓌,7.3,��
